This is the latest recevied weather packets stored in our database for station/object KC8P. If no packets are shown the sender has not sent any weather packets the latest 10 day(s).
| Time | Temp. | Humidity | Pressure | Rain* | Wind** | Luminosity | Snow |
|---|---|---|---|---|---|---|---|
| 1778179881 | 11.11° C | 46% | 1011.4 hPa | 0 mm | - | 485 W/m² | - |
| 1778179815 | 11.11° C | 46% | 1011.8 hPa | 0 mm | - | 406 W/m² | - |
| 1778179749 | 11.11° C | 46% | 1011.8 hPa | 0 mm | - | 317 W/m² | - |
| 1778179685 | 11.11° C | 46% | 1011.8 hPa | 0 mm | - | 284 W/m² | - |
| 1778179618 | 11.11° C | 46% | 1011.8 hPa | 0 mm | - | 273 W/m² | - |
| 1778179553 | 11.11° C | 47% | 1011.4 hPa | 0 mm | - | 270 W/m² | - |
| 1778179487 | 10.56° C | 46% | 1011.8 hPa | 0 mm | - | 272 W/m² | - |
| 1778179421 | 11.11° C | 46% | 1011.8 hPa | 0 mm | - | 275 W/m² | - |
| 1778179355 | 11.11° C | 45% | 1011.4 hPa | 0 mm | - | 281 W/m² | - |
| 1778179290 | 11.11° C | 45% | 1011.4 hPa | 0 mm | - | 292 W/m² | - |
| 1778179224 | 11.11° C | 45% | 1011.4 hPa | 0 mm | - | 347 W/m² | - |
| 1778179159 | 11.11° C | 45% | 1011.8 hPa | 0 mm | - | 294 W/m² | - |
| 1778179093 | 11.67° C | 45% | 1011.4 hPa | 0 mm | - | 257 W/m² | - |
| 1778179027 | 11.11° C | 47% | 1011.4 hPa | 0 mm | - | 255 W/m² | - |
| 1778178961 | 11.11° C | 46% | 1011.4 hPa | 0 mm | - | 254 W/m² | - |
| 1778178896 | 11.67° C | 46% | 1011.4 hPa | 0 mm | - | 310 W/m² | - |
| 1778178830 | 11.67° C | 45% | 1011.4 hPa | 0 mm | - | 239 W/m² | - |
| 1778178764 | 11.67° C | 46% | 1011.4 hPa | 0 mm | - | 232 W/m² | - |
| 1778178699 | 11.67° C | 44% | 1011.4 hPa | 0 mm | - | 241 W/m² | - |
| 1778178633 | 12.22° C | 44% | 1011.4 hPa | 0 mm | - | 274 W/m² | - |
| 1778178567 | 12.78° C | 45% | 1011.4 hPa | 0 mm | - | 786 W/m² | - |
| 1778178502 | 12.78° C | 43% | 1011.4 hPa | 0 mm | - | 321 W/m² | - |
| 1778178436 | 12.78° C | 45% | 1011.4 hPa | 0 mm | - | 259 W/m² | - |
| 1778178370 | 12.22° C | 45% | 1011.4 hPa | 0 mm | - | 322 W/m² | - |
| 1778178304 | 12.22° C | 45% | 1011.8 hPa | 0 mm | - | 743 W/m² | - |
* Rain latest hour (hover to see other rain measurements)
** Current wind speed in m/s (hover to see current wind gust speed)